Location: Ash Shall?l al Awwal
(24.0167°N, 32.8667°E)
Time: 19:39:55
(UTC+00:00)

Cosmos 1666 - Pass Details

Date: 02 March 2021
Orbit: 497 x 518 km, 82.5° (Epoch: 09 April)

Event Time Altitude Azimuth Distance (km) Brightness Sun altitude
Rises 17:05:05 0° 179° (S) 2,571 6.2 -17.5°
Reaches altitude 10° 17:07:12 10° 176° (S) 1,690 5.3 -18.0°
Maximum altitude 17:10:51 65° 94° (E) 549 2.5 -18.8°
Drops below altitude 10° 17:14:32 10° 12° (NNE) 1,697 5.2 -19.7°
Sets 17:16:39 0° 9° (N) 2,583 6.2 -20.2°
